Vorticity
6 6 6 6 5 5 5 5 6 6 6 5 7 6 5 13 15 15 9 7 4 11 9 8 7 11 13 28 12 0 -2 4 2 22 -1 -1 11 9 7 7 7 -12 10 9 1
4 5 5 5 5 5 5 6 6 7 6 6 6 8 7 16 15 13 9 9 13 9 11 8 12 -0 -0 -4 8 7 3 9 8 -7 -4 12 14 34 11 10 16 3 15 13 9
4 4 5 5 4 5 5 6 6 6 6 7 7 7 11 16 15 12 12 0 10 14 17 11 10 4 13 11 6 12 15 -8 19 -6 9 14 10 21 14 21 12 7 7 0 -1
5 5 5 5 5 5 6 6 7 6 6 7 9 8 13 13 13 5 2 9 15 12 13 13 7 12 10 5 -6 1 9 6 33 5 28 12 -0 7 48 18 1 3 1 29 15
5 5 6 5 5 6 6 7 7 6 6 6 8 11 12 14 12 -1 1 10 11 17 18 11 6 -0 -6 4 3 38 21 39 -5 24 -2 3 3 13 -1 -3 18 12 17 16 5
6 5 5 5 4 6 7 7 7 6 6 8 8 10 11 17 11 7 15 5 5 10 24 6 -8 4 10 12 7 14 18 27 11 9 9 -1 12 11 8 23 8 1 21 12 8
8 7 6 5 5 6 6 8 6 6 6 8 9 10 14 10 4 14 20 11 8 8 26 -2 1 -5 0 15 8 1 5 4 13 3 1 -2 11 8 5 17 10 14 5 4 5
8 7 8 6 5 6 7 8 6 6 7 7 10 13 13 15 12 14 13 8 1 1 18 2 2 -5 11 7 17 11 19 -6 -0 18 2 -1 16 8 4 18 12 9 5 5 -1
11 8 7 7 7 7 7 7 6 5 7 7 11 12 17 16 16 15 -2 5 4 -0 7 14 12 13 3 10 8 14 13 7 7 -26 49 26 8 4 12 5 4 5 3 -1 2
14 13 8 7 8 8 8 6 6 6 6 8 15 13 19 -5 13 -1 -1 4 -0 -0 17 14 16 19 10 10 1 25 -5 -23 -12 -6 -5 -3 4 5 9 7 11 4 -1 -0 4
13 15 11 8 8 8 9 4 7 10 9 9 -3 15 7 4 3 1 6 12 8 9 6 8 4 2 8 6 15 2 -30 5 -1 39 9 1 0 12 3 9 2 1 9 4 2
10 15 14 12 10 9 7 3 9 0 8 12 9 19 3 3 9 15 1 1 6 -1 -1 2 -1 1 6 -6 -13 2 20 14 14 36 35 11 -10 38 2 2 -3 1 4 8 6
7 11 16 14 11 9 5 4 5 7 7 26 13 17 12 0 12 26 2 4 5 10 6 4 -7 25 4 4 -8 8 -0 -5 13 25 38 40 29 14 6 -4 -0 2 3 4 4
4 9 14 13 12 9 5 7 5 10 16 13 23 21 9 -5 12 8 3 4 -2 0 6 10 11 3 15 26 5 -2 60 14 2 26 3 12 28 39 5 6 0 0 3 -1 4
5 6 12 17 13 5 7 8 10 12 8 22 17 15 9 4 14 12 6 3 3 -16 34 -9 59 33 6 6 6 12 11 2 3 11 5 -1 11 30 27 8 2 -2 3 4 -3
5 5 8 18 16 7 8 9 12 8 16 1 3 16 12 7 14 23 4 -6 5 7 -4 8 -0 3 14 11 23 6 22 -5 19 19 12 12 3 10 -11 14 16 1 9 4 -3
6 5 6 14 9 8 7 9 -2 -2 20 30 2 7 16 16 -1 12 8 5 3 7 1 5 8 3 -13 40 -7 10 -4 11 9 9 2 12 32 3 8 13 33 -2 13 6 17
6 6 7 24 4 10 8 8 -5 41 -10 27 8 5 13 7 13 6 -0 17 12 -7 7 11 19 -0 3 4 13 18 5 5 11 9 4 16 14 -7 11 30 17 25 23 5 5
6 5 5 28 5 9 7 -1 14 -4 30 -11 22 9 1 14 -11 4 2 12 -5 13 2 5 7 11 11 2 10 6 17 8 7 16 14 10 8 14 16 9 16 9 12 -16 11
5 6 6 21 4 9 8 -31 -7 -26 5 17 18 2 10 11 -4 -7 -1 22 11 15 5 13 8 12 17 -1 -3 1 15 9 12 8 10 12 21 3 10 3 22 33 33 13 12
9 10 9 12 8 7 -4 -9 -13 4 -24 13 1 21 -4 2 19 10 -7 -1 -2 12 7 16 -7 14 13 8 17 -2 4 -3 8 -1 6 7 14 17 18 11 -8 9 8 17 22
9 4 19 10 5 5 -0 -3 -30 -1 -12 -10 1 6 16 0 6 3 15 4 -1 30 24 34 8 12 1 5 54 1 18 12 -1 7 3 4 8 -2 -1 -19 15 5 9 -1 8
-1 6 26 13 -3 2 -3 3 15 -8 5 -14 -13 18 3 7 11 23 4 19 -3 15 -1 -17 6 1 25 20 1 17 0 3 11 9 6 -11 -13 -1 -0 -1 5 2 5 16 1
7 -11 21 22 3 2 9 -5 10 5 -16 6 -2 -0 2 7 4 28 14 12 -4 19 16 20 10 8 -14 -1 7 5 21 4 16 12 6 -11 0 9 -1 3 11 11 8 7 10
-1 11 -6 41 7 5 10 11 -2 5 10 -2 1 0 -4 13 13 -7 17 31 12 19 6 4 4 0 10 6 -0 2 16 23 3 2 11 25 33 19 4 30 33 22 6 8 9
8 16 -1 -13 21 7 10 4 -0 7 -4 14 4 5 -3 10 11 -14 20 5 19 10 8 7 7 9 6 -6 2 -4 -5 5 0 -2 -1 10 6 4 21 -3 14 14 22 4 5
7 -2 15 4 26 15 0 6 9 6 11 8 18 -8 6 6 7 -8 13 27 13 8 7 3 14 15 21 15 11 28 12 -5 -1 9 6 5 16 14 13 12 11 7 8 6 1
Height
3162 3163 3162 3162 3161 3160 3158 3156 3154 3153 3150 3147 3144 3141 3139 3137 3134 3132 3131 3133 3131 3131 3131 3131 3133 3133 3134 3136 3137 3136 3136 3136 3135 3135 3137 3134 3135 3135 3134 3132 3132 3134 3135 3136 3134
3158 3158 3158 3158 3158 3157 3155 3153 3151 3149 3147 3144 3141 3138 3136 3134 3132 3131 3131 3130 3129 3128 3129 3130 3131 3132 3133 3134 3135 3136 3135 3135 3134 3134 3134 3133 3132 3131 3133 3131 3131 3133 3133 3132 3133
3153 3153 3154 3154 3154 3153 3151 3150 3148 3146 3143 3141 3139 3136 3134 3131 3131 3130 3129 3129 3128 3127 3127 3129 3130 3131 3131 3132 3134 3133 3132 3133 3134 3133 3132 3132 3131 3129 3129 3129 3130 3131 3130 3131 3133
3147 3148 3149 3149 3150 3149 3148 3146 3145 3143 3140 3138 3136 3134 3131 3130 3131 3129 3128 3128 3126 3126 3127 3127 3129 3131 3132 3131 3133 3132 3129 3130 3132 3132 3131 3131 3130 3129 3128 3129 3129 3132 3133 3131 3134
3141 3143 3144 3145 3145 3145 3145 3143 3142 3139 3137 3135 3133 3132 3130 3129 3127 3126 3127 3127 3126 3126 3126 3128 3129 3131 3131 3131 3131 3127 3125 3127 3131 3130 3130 3131 3131 3130 3130 3128 3129 3130 3130 3129 3132
3135 3137 3138 3140 3140 3141 3140 3140 3138 3136 3134 3133 3131 3129 3128 3127 3126 3125 3126 3125 3127 3128 3127 3129 3130 3130 3129 3131 3131 3129 3126 3127 3129 3129 3130 3130 3131 3129 3128 3128 3132 3131 3131 3130 3133
3128 3131 3133 3134 3135 3135 3136 3136 3134 3132 3131 3130 3128 3127 3126 3126 3123 3125 3125 3126 3127 3128 3128 3130 3129 3129 3130 3130 3130 3131 3128 3128 3129 3129 3130 3130 3131 3131 3129 3131 3132 3130 3131 3133 3137
3122 3124 3126 3128 3129 3131 3131 3131 3130 3129 3128 3127 3126 3124 3123 3123 3123 3124 3125 3126 3128 3128 3128 3129 3129 3129 3130 3130 3130 3131 3131 3129 3131 3129 3127 3128 3129 3131 3131 3131 3130 3132 3134 3136 3138
3114 3117 3120 3122 3123 3125 3126 3126 3125 3125 3125 3124 3124 3122 3122 3122 3123 3124 3126 3127 3127 3127 3126 3127 3128 3128 3130 3130 3130 3130 3131 3131 3131 3128 3124 3128 3129 3129 3131 3131 3131 3133 3134 3135 3136
3108 3111 3113 3115 3117 3120 3121 3121 3120 3120 3121 3121 3120 3123 3121 3119 3120 3124 3125 3127 3127 3127 3128 3128 3127 3127 3129 3130 3131 3132 3131 3131 3129 3128 3128 3128 3129 3131 3131 3131 3132 3133 3135 3135 3137
3102 3104 3106 3109 3112 3115 3118 3116 3119 3118 3117 3118 3118 3117 3117 3118 3118 3121 3123 3126 3127 3128 3127 3127 3128 3128 3129 3130 3130 3132 3129 3128 3127 3126 3126 3126 3128 3130 3130 3131 3130 3131 3133 3135 3137
3096 3098 3100 3103 3106 3110 3112 3112 3111 3113 3112 3112 3112 3113 3115 3116 3116 3119 3122 3125 3125 3127 3127 3128 3127 3128 3128 3130 3130 3131 3128 3124 3121 3121 3122 3123 3124 3128 3128 3128 3128 3128 3130 3133 3136
3091 3093 3094 3098 3101 3105 3107 3108 3104 3108 3106 3107 3106 3108 3112 3114 3114 3116 3119 3122 3123 3125 3125 3125 3126 3126 3127 3129 3128 3126 3124 3123 3121 3121 3121 3123 3123 3126 3128 3130 3132 3132 3131 3131 3132
3086 3087 3090 3092 3098 3100 3103 3104 3104 3107 3106 3103 3102 3105 3106 3109 3111 3113 3117 3121 3122 3123 3124 3123 3122 3123 3124 3126 3128 3121 3120 3121 3120 3121 3121 3122 3123 3124 3127 3127 3128 3130 3130 3131 3131
3079 3082 3084 3087 3092 3096 3098 3099 3103 3105 3106 3099 3099 3101 3102 3107 3109 3111 3115 3118 3119 3122 3124 3122 3117 3120 3123 3125 3125 3121 3120 3121 3121 3120 3121 3121 3123 3121 3123 3125 3123 3123 3126 3127 3129
3072 3075 3078 3083 3088 3091 3094 3097 3100 3105 3100 3096 3095 3097 3099 3104 3107 3109 3113 3117 3118 3120 3120 3120 3120 3120 3121 3122 3122 3121 3121 3121 3121 3120 3121 3119 3121 3117 3118 3116 3116 3118 3121 3123 3125
3064 3068 3073 3077 3083 3085 3090 3094 3099 3095 3092 3093 3093 3094 3097 3101 3104 3106 3109 3113 3115 3118 3118 3118 3118 3118 3118 3118 3120 3120 3121 3122 3124 3123 3121 3118 3118 3112 3112 3113 3114 3118 3119 3120 3122
3055 3060 3066 3072 3074 3081 3087 3091 3087 3081 3085 3088 3091 3093 3094 3098 3102 3105 3106 3108 3112 3115 3116 3116 3117 3116 3117 3118 3119 3120 3119 3119 3121 3124 3117 3116 3114 3112 3111 3110 3112 3114 3117 3117 3119
3044 3049 3055 3065 3067 3074 3080 3078 3073 3077 3081 3085 3088 3090 3091 3096 3100 3102 3103 3104 3107 3110 3115 3115 3114 3114 3115 3116 3117 3117 3117 3117 3116 3117 3117 3113 3111 3110 3110 3111 3111 3111 3113 3113 3115
3032 3039 3049 3057 3061 3067 3070 3061 3066 3075 3076 3080 3083 3085 3085 3090 3095 3097 3099 3100 3103 3106 3110 3112 3113 3113 3113 3113 3114 3114 3116 3115 3113 3117 3116 3111 3110 3107 3107 3109 3109 3110 3110 3111 3113
3023 3029 3039 3047 3052 3056 3050 3053 3061 3070 3074 3078 3079 3081 3083 3085 3089 3093 3094 3097 3098 3103 3106 3107 3109 3111 3109 3108 3108 3111 3111 3112 3112 3112 3112 3115 3109 3106 3106 3107 3107 3108 3108 3109 3109
3011 3017 3027 3037 3041 3043 3041 3047 3057 3063 3068 3072 3074 3076 3079 3082 3084 3087 3089 3092 3095 3097 3101 3102 3104 3105 3105 3103 3103 3106 3106 3108 3108 3109 3108 3107 3106 3106 3106 3106 3106 3105 3105 3106 3108
2998 3011 3019 3028 3027 3028 3035 3041 3049 3056 3062 3067 3070 3074 3076 3079 3081 3083 3085 3088 3091 3093 3096 3099 3101 3101 3102 3102 3102 3102 3103 3104 3104 3104 3103 3105 3103 3103 3103 3103 3104 3103 3103 3103 3104
2988 2999 3010 3014 3018 3022 3026 3033 3038 3049 3055 3060 3065 3069 3070 3073 3076 3079 3080 3084 3087 3089 3094 3095 3095 3096 3097 3098 3100 3099 3099 3100 3100 3100 3099 3099 3099 3100 3100 3099 3099 3099 3099 3099 3099
2974 2982 2988 2994 2999 3009 3018 3025 3031 3039 3046 3056 3060 3063 3067 3069 3072 3075 3076 3079 3082 3085 3088 3091 3091 3093 3094 3095 3095 3094 3095 3096 3096 3096 3095 3096 3094 3095 3094 3093 3093 3095 3095 3095 3095
2963 2972 2982 2988 2998 3004 3008 3010 3021 3035 3040 3044 3053 3059 3062 3064 3069 3072 3073 3075 3078 3081 3084 3087 3088 3090 3091 3090 3090 3090 3091 3092 3091 3092 3091 3092 3091 3091 3089 3089 3090 3092 3091 3091 3091
2950 2965 2976 2983 2989 2995 2993 3004 3015 3031 3035 3041 3050 3055 3056 3060 3066 3069 3070 3072 3074 3078 3080 3081 3083 3085 3085 3085 3086 3086 3086 3086 3086 3087 3086 3086 3085 3086 3086 3086 3087 3088 3088 3089 3089